Вернуться в каталог

FLOCK 4H 26

АктивенНаукаSSO
NORAD 66729·PAYLOAD·🇺🇸 United States

Запущен Nov 28, 2025 с Vandenberg Space Force Base

Loading…

Ближайшие Пролёты (ближайшие 24 часа)

TLE

СвежийSource: CelesTrak SupGP

Эпоха: Sep 14, 2026, 16:45 UTC

1 66729C 25276BR  26257.69799769  .00003672  00000+0  16807-3 0  2575
2 66729  97.4114 329.6190 0006027  67.7069 263.5928 15.20565571    11

Отслеживайте FLOCK 4H 26 в реальном времени с AllMySat

Download on the App Store